Regional Weather Roundup
Issued by NWS

Home | Current Version | Previous Version | Text Only | Print | Product List | Glossary Off
Versions: 1 2 3 4 5 6 7 8 9 10 11 12 13 14 15 16 17 18 19 20 21 22 23 24 25 26 27 28 29 30 31 32 33 34 35 36 37 38 39 40 41 42 43 44 45 46 47 48 49 50

000
ASUS45 KBOI 221610
RWRID
WEATHER ROUNDUP FOR IDAHO
NATIONAL WEATHER SERVICE BOISE ID
1000 AM MDT TUE JUL 22 2014

NOTE: "FAIR" INDICATES FEW OR NO CLOUDS BELOW 12000 FEET
WITH NO SIGNIFICANT WEATHER AND/OR OBSTRUCTIONS TO VISIBILITY

IDZ012-014-221700-
SOUTHWEST IDAHO


CITY           SKY/WX    TMP DP  RH WIND       PRES   REMARKS
BOISE          SUNNY     79  51  37 SE14      30.15R
CALDWELL       SUNNY     73  52  46 SE7       30.16S
MOUNTAIN HOME  SUNNY     76  56  49 E15       30.16R
$$

IDZ016-017-221700-
SOUTHCENTRAL IDAHO


CITY           SKY/WX    TMP DP  RH WIND       PRES   REMARKS
BURLEY         SUNNY     72  56  57 E7        30.22S
JEROME         SUNNY     74  56  53 N5        30.23R
TWIN FALLS     SUNNY     74  55  51 N6        30.23R
$$

IDZ019>023-221700-
SOUTHEAST IDAHO


CITY           SKY/WX    TMP DP  RH WIND       PRES   REMARKS
IDAHO FALLS    MOSUNNY   71  52  50 CALM      30.29S
POCATELLO      SUNNY     73  53  49 CALM      30.27R
REXBURG        SUNNY     69  50  50 NE6       30.30S
$$

IDZ006-010-011-018-031-032-221700-
CENTRAL IDAHO MOUNTAINS


CITY           SKY/WX    TMP DP  RH WIND       PRES   REMARKS
MCCALL         SUNNY     68  50  52 S9        30.24R
HAILEY         MOSUNNY   68  48  49 NW8       30.32R
STANLEY          N/A     62  47  57 N3        30.35S
SALMON         SUNNY     73  50  43 N6        30.18F
CHALLIS        SUNNY     69  51  52 NE3       30.26S
$$

IDZ002-004-006-007-026-221700-
NORTHERN IDAHO


CITY           SKY/WX    TMP DP  RH WIND       PRES   REMARKS
LEWISTON       PTSUNNY   74  47  38 CALM      30.06R
LOWELL           N/A     70  51  51 CALM      30.08F
COEUR D`ALENE  CLOUDY    61  54  77 MISG      30.14S
MULLAN PASS    LGT RAIN  47  43  86 W7        30.28R FOG
$$


USA.gov is the U.S. government's official web portal to all federal, state and local government web resources and services.